Sisseton, SD

8:15 PM CST on January 17, 2018 (GMT -0600)
Sisseton

Weather History for K8D3 - April, 2014

Change the Weather History Date:

Friday, April 11, 2014

  Actual Average Record
Temperature  
Mean Temperature 48 °F 42 °F  
Max Temperature 66 °F 54 °F 84 °F (1968)
Min Temperature 30 °F 31 °F 8 °F (1940)
Degree Days  
Heating Degree Days 17 23  
Month to date heating degree days 284 278  
Since 1 July heating degree days 8300 7620  
Cooling Degree Days 0 0  
Month to date cooling degree days 0 0  
Year to date cooling degree days 0 0  
Moisture  
Dew Point 33 °F    
Average Humidity 61    
Maximum Humidity 100    
Minimum Humidity 21    
Precipitation  
Precipitation T in 0.06 in 1.18 in (2001)
Month to date precipitation 0.49 0.52  
Year to date precipitation 1.95 2.50  
Snow  
Snow 0.00 in - - ()
Month to date snowfall 4.7  
Since 1 July snowfall 36.1  
Snow Depth 0.00 in    
Sea Level Pressure  
Sea Level Pressure 29.90 in    
Wind  
Wind Speed 7 mph (West)    
Max Wind Speed 18 mph    
Max Gust Speed 24 mph    
T = Trace of Precipitation, MM = Missing Value Source: NWS Daily Summary

Daily Weather History Graph

Daily Weather History Graph

Search for Another Location

Airport or City:

Trip Planner

Search our weather history database for the weather conditions in past years. The results will help you decide how hot, cold, wet, or windy it might be!

Date:

Astronomy

Apr. 11, 2014 Rise Set
Actual Time 6:49 AM CDT 8:09 PM CDT
Civil Twilight 6:18 AM CDT 8:40 PM CDT
Nautical Twilight 5:41 AM CDT 9:17 PM CDT
Astronomical Twilight 5:02 AM CDT 9:57 PM CDT
Moon 4:41 PM CDT (4/11) 4:55 AM CDT (4/11)
Length of Visible Light 14h 21m
Length of Day
13h 19m
Waxing Gibbous, 87% of the Moon is Illuminated
Apr 11
Waxing Gibbous
Apr 15
Full
Apr 22
Last Quarter
Apr 29
New
May 6
First Quarter

Hourly Weather History & Observations

Time (CDT) Temp. Windchill Dew Point Humidity Pressure Visibility Wind Dir Wind Speed Gust Speed Precip Events Conditions
12:56 AM 45.0 °F 38.9 °F 37.0 °F 74% 29.94 in - NNW 12.7 mph - N/A   Unknown
1:56 AM 42.1 °F 38.4 °F 37.9 °F 85% 29.95 in - North 5.8 mph - N/A   Unknown
2:56 AM 39.0 °F 34.0 °F 37.0 °F 93% 29.91 in - East 6.9 mph - N/A   Unknown
3:56 AM 36.0 °F 32.1 °F 36.0 °F 100% 29.91 in - SSW 4.6 mph - N/A   Unknown
4:56 AM 33.1 °F 28.7 °F 33.1 °F 100% 29.94 in - Variable 4.6 mph - N/A   Unknown
5:56 AM 32.0 °F - 32.0 °F 100% 29.94 in - Calm Calm - N/A   Unknown
6:56 AM 30.9 °F 26.2 °F 30.0 °F 96% 29.95 in - West 4.6 mph - N/A   Unknown
7:56 AM 33.1 °F - 33.1 °F 100% 29.97 in - Calm Calm - N/A   Unknown
8:56 AM 42.1 °F 36.6 °F 37.9 °F 85% 29.96 in - SSW 9.2 mph - N/A   Unknown
9:56 AM 46.9 °F - 39.0 °F 74% 29.96 in - South 10.4 mph - N/A   Unknown
10:56 AM 52.0 °F - 39.9 °F 63% 29.96 in - South 6.9 mph - N/A   Unknown
11:56 AM 57.9 °F - 35.1 °F 42% 29.94 in - WNW 9.2 mph - N/A   Unknown
12:56 PM 62.1 °F - 32.0 °F 32% 29.92 in - NW 9.2 mph 20.7 mph N/A   Unknown
1:56 PM 63.0 °F - 28.9 °F 28% 29.91 in - WNW 10.4 mph - N/A   Unknown
2:56 PM 63.0 °F - 23.0 °F 22% 29.90 in - West 10.4 mph - N/A   Unknown
3:56 PM 63.0 °F - 27.0 °F 26% 29.89 in - West 13.8 mph - N/A   Unknown
4:56 PM 64.0 °F - 28.0 °F 26% 29.86 in - Variable 5.8 mph - N/A   Unknown
5:56 PM 62.1 °F - 28.9 °F 29% 29.85 in - West 6.9 mph - N/A   Unknown
6:56 PM 60.1 °F - 37.0 °F 42% 29.85 in - NE 3.5 mph - N/A   Unknown
7:56 PM 55.9 °F - 35.1 °F 45% 29.86 in - ENE 6.9 mph - N/A   Unknown
8:56 PM 55.9 °F - 32.0 °F 40% 29.86 in - East 11.5 mph - N/A   Unknown
9:56 PM 52.0 °F - 35.1 °F 53% 29.83 in - East 10.4 mph - N/A   Unknown
10:56 PM 51.1 °F - 33.1 °F 50% 29.83 in - ESE 6.9 mph - N/A   Unknown
11:56 PM 53.1 °F - 34.0 °F 48% 29.80 in - ESE 11.5 mph - N/A   Unknown